Location: Unspecified
(41.1637°N, 24.2901°E)
Time: 21:17:46
(UTC+01:00)

N. Korean satellite - Visible Passes

Search period start: 05 March 2021 00:00
Search period end: 15 March 2021 00:00
Orbit: 451 x 502 km, 97.2° (Epoch: 05 March)

Date Brightness Start Highest point End Pass type
(mag) Time Alt. Az. Time Alt. Az. Time Alt. Az.
05 Mar 9.4 04:00:00 10° NE 04:02:34 19° E 04:05:09 10° SE visible
06 Mar 6.6 05:05:41 10° N 05:09:12 55° WNW 05:12:43 10° SSW visible
07 Mar 7.1 04:38:54 10° NNE 04:42:27 62° E 04:46:02 10° S visible
08 Mar 8.8 04:12:31 10° NE 04:15:37 27° E 04:18:44 10° SSE visible
09 Mar 9.9 03:46:57 10° ENE 03:48:41 13° E 03:50:24 10° ESE visible
10 Mar 6.5 04:51:48 10° N 04:55:24 86° WNW 04:59:01 10° SSW visible
11 Mar 8.1 04:25:10 10° NNE 04:28:35 40° E 04:32:01 10° S visible
12 Mar 9.5 03:59:03 10° NE 04:01:40 19° E 04:04:18 10° SE visible
13 Mar 6.7 05:04:42 10° N 05:08:16 57° WNW 05:11:51 10° SSW visible
14 Mar 7.2 04:37:52 10° NNE 04:41:29 61° E 04:45:06 10° S visible
